This is the latest recevied weather packets stored in our database for station/object DM4SB-4. If no packets are shown the sender has not sent any weather packets the latest 1 day(s).
| Time | Temp. | Humidity | Pressure | Rain* | Wind** | Luminosity | Snow |
|---|---|---|---|---|---|---|---|
| 1778003434 | 12.78° C | 88% | 1004.1 hPa | 0 mm | 0 m/s | - | - |
| 1778002833 | 13.33° C | 88% | 1004.1 hPa | 0 mm | 0 m/s | - | - |
| 1778002233 | 13.89° C | 88% | 1004.4 hPa | 0 mm | 0 m/s | - | - |
| 1778001633 | 13.89° C | 86% | 1004.3 hPa | 0 mm | 0.45 m/s, 109° | - | - |
| 1778001033 | 14.44° C | 86% | 1004.2 hPa | 0 mm | 0 m/s | - | - |
| 1778000433 | 14.44° C | 84% | 1004.3 hPa | 0 mm | 0 m/s | - | - |
| 1777999834 | 14.44° C | 86% | 1004.1 hPa | 0 mm | 0 m/s | - | - |
| 1777999234 | 13.89° C | 89% | 1004.4 hPa | 0 mm | 0 m/s | - | - |
| 1777998633 | 13.89° C | 86% | 1004.3 hPa | 0 mm | 0 m/s | - | - |
| 1777998033 | 13.89° C | 86% | 1004.2 hPa | 0 mm | 0 m/s | - | - |
| 1777997433 | 13.33° C | 86% | 1004.4 hPa | 0 mm | 0 m/s | - | - |
| 1777996833 | 13.89° C | 87% | 1004.2 hPa | 0 mm | 0 m/s | - | - |
| 1777996234 | 13.89° C | 89% | 1004.5 hPa | 0 mm | 0 m/s | - | - |
| 1777995634 | 13.33° C | 89% | 1004.6 hPa | 0 mm | 0 m/s | - | - |
| 1777995033 | 13.33° C | 90% | 1004.7 hPa | 0 mm | 0 m/s | - | - |
| 1777994433 | 12.78° C | 89% | 1004.7 hPa | 0 mm | 0 m/s | - | - |
| 1777993833 | 12.78° C | 90% | 1004.6 hPa | 0 mm | 0 m/s | - | - |
| 1777993233 | 12.78° C | 90% | 1004.6 hPa | 0.25 mm | 0 m/s | - | - |
| 1777992633 | 13.33° C | 91% | 1005 hPa | 0.25 mm | 0 m/s | - | - |
| 1777992034 | 12.78° C | 91% | 1004.8 hPa | 0.25 mm | 0 m/s | - | - |
| 1777991434 | 13.33° C | 91% | 1004.4 hPa | 0.25 mm | 1.34 m/s, 115° | - | - |
| 1777990834 | 13.33° C | 91% | 1004.8 hPa | 0.25 mm | 0 m/s | - | - |
| 1777990233 | 13.89° C | 89% | 1005 hPa | 0.76 mm | 0.45 m/s, 182° | - | - |
| 1777989633 | 13.89° C | 89% | 1005.1 hPa | 1.27 mm | 0 m/s | - | - |
| 1777989033 | 13.89° C | 91% | 1005.4 hPa | 1.27 mm | 0 m/s | - | - |
* Rain latest hour (hover to see other rain measurements)
** Current wind speed in m/s (hover to see current wind gust speed)